User: anonymous   Login
Location: Camp Creek
(33.9000°N, 111.8167°W)
Time: 14:54:56
(UTC-07:00)
Language:

Cosmos 1656 - Orbit

View from above orbital plane
View from above orbital plane
View from above satellite
View from above satellite

Ground track
Ground track

The orbit data is extracted from the following two-line orbital elements,

1 15755U 85042A   16126.43895313 -.00000048  00000-0 -15318-6 0  9992
2 15755  71.1087 142.2998 0036689 321.7083  38.1438 14.20392237602794
Epoch (UTC): 05 May 2016 10:32:05
Eccentricity: 0.0036689
inclination: 71.1087°
perigee height: 797 km
apogee height: 850 km
right ascension of ascending node: 142.2998°
argument of perigee: 321.7083°
revolutions per day: 14.20392237
mean anomaly at epoch: 38.1438°
orbit number at epoch: 60279

The dashed part of the orbit path shows where the satellite is in the earth's shadow,  

DLR